Regional Weather Roundup
Issued by NWS Grand Forks, ND

Home | Current Version | Previous Version | Graphics & Text | Print | Product List | Glossary On
Versions: 1 2 3 4 5 6 7 8 9 10 11 12 13 14 15 16 17 18 19 20 21 22 23 24 25 26 27 28 29 30 31 32 33 34 35 36 37 38 39 40 41 42 43 44 45 46 47 48 49 50
000
ASUS43 KFGF 281331
RWRFGF
PRAIRIE TO PINES  WEATHER ROUNDUP
NATIONAL WEATHER SERVICE EASTERN NORTH DAKOTA/GRAND FORKS ND
800 AM CDT MON JUL 28 2014

 **SATELLITE DATA USED TO AUGMENT SKY COVER AT AUTOMATED STATIONS**
 *****  WEATHER ACROSS EASTERN NORTH DAKOTA  *****

CITY           SKY/WX    TMP DP  RH WIND       PRES   REMARKS
GRAND FORKS    CLOUDY    61  55  81 NW5       30.27R
GRAND FRKS AFB CLOUDY    60  57  88 NW5       30.28S
GRAND FRKS NWS   N/A     61 N/A N/A N1          N/A
DEVILS LAKE    SUNNY     57  52  82 NW7       30.30S
FARGO          CLOUDY    61  55  81 NW5       30.27R
WAHPETON ARPT  CLOUDY    59  54  82 N5        30.28R
$$

 ***** WEATHER ACROSS CENTRAL AND WESTERN NORTH DAKOTA  *****

CITY           SKY/WX    TMP DP  RH WIND       PRES   REMARKS
BISMARCK       SUNNY     53  50  89 W3        30.35S
MINOT          MOSUNNY   55  50  83 CALM      30.33R
JAMESTOWN      CLOUDY    58  53  84 NW8       30.32R
MINOT AFB      PTSUNNY   56  55  99 NW1       30.32S
GARRISON         N/A     54  52  93 CALM      30.33S
WILLISTON      SUNNY     59  53  80 CALM      30.32S
DICKINSON      SUNNY     53  50  89 S6        30.33S
HETTINGER      SUNNY     52  49  89 CALM      30.36S
$$

 *****  OTHER AIRPORT OBSERVATIONS IN OUR AREA  *****

CITY           SKY/WX    TMP DP  RH WIND       PRES   REMARKS
WALHALLA         N/A     59  59 100 NW6         N/A
GRAFTON AIRPOR PTSUNNY   61  55  82 NW9       30.28R
VALLEY CITY AR CLOUDY    59  59 100 NW8       30.31R
CANDO          FAIR      57  54  88 W5        30.33R
CAVALIER APRT  FAIR      59  54  82 NW8       30.28S
GWINNER        CLOUDY    63  57  82 N7        30.31R
SHEYENNE NWR     N/A     60  55  84 NW3       29.95S
ROLLA          FAIR      59  55  88 NW6       30.34R
 ***** THE ABOVE OBSERVATIONS ARE NON NWS ARE NOT QUALITY
       CONTROLLED AND MAY MIS-REPORT RAIN FOR SNOW...
$$

  *****  WEATHER ACROSS NORTHERN MINNESOTA  *****

CITY           SKY/WX    TMP DP  RH WIND       PRES   REMARKS
FLAG ISLAND    SUNNY     59  55  88 NW7       30.22R
WARROAD        SUNNY     61  55  82 NW3       30.25R
ROSEAU         SUNNY     61  54  77 NW7       30.25R
HALLOCK        SUNNY     59  55  88 NW5       30.27R
THF RVR FALLS  CLOUDY    61  55  82 NW8       30.26S
BAUDETTE       SUNNY     60  58  92 W3        30.23R
WASKISH        SUNNY     61  59  94 CALM      30.23S
CROOKSTON      CLOUDY    61  57  88 NW7       30.27S
$$
  *****  WEATHER ACROSS CENTRAL AND WEST MINNESOTA  *****

CITY           SKY/WX    TMP DP  RH WIND       PRES   REMARKS
FOSSTON        CLOUDY    59  55  88 NW5       30.26S
BEMIDJI        SUNNY     61  55  82 NW7       30.24S
PARK RAPIDS    CLOUDY    60  56  86 NW8       30.24R
ELBOW LAKE     CLOUDY    59  58  96 NW7       30.26R
WADENA         CLOUDY    61  57  88 NW5       30.24R
DETROIT LAKES  PTSUNNY   59  55  88 NW6       30.27S
MOORHEAD       CLOUDY    61  59  94 N6        30.28R
FERGUS FALLS   CLOUDY    61  55  82 N7        30.27R
MORRIS MN      CLOUDY    63  59  88 NW8       30.25R
STAPLES        CLOUDY    61  55  82 NW5       30.24R
$$
  *****  WEATHER ELSEWHERE ACROSS MINNESOTA  *****

CITY           SKY/WX    TMP DP  RH WIND       PRES   REMARKS
DULUTH         MOSUNNY   60  54  80 NW6       30.18R
INTRNTL FALLS  SUNNY     58  55  90 CALM      30.20R
ELY            SUNNY     61  54  77 NW5       30.17S
CLOQUET        SUNNY     61  55  82 NW6       30.19S
WHEATON        CLOUDY    59  55  88 NW6       30.29R
BRAINERD       PTSUNNY   63  57  81 NW6       30.22S
HIBBING        SUNNY     61  54  77 NW7       30.20R
ALEXANDRIA     CLOUDY    62  57  83 N7        30.26R
SAINT CLOUD    CLOUDY    65  57  75 NW6       30.21S
MINNEAPOLIS    CLOUDY    64  57  78 N8        30.19S
$$

  *****  WEATHER ACROSS SOUTH DAKOTA  *****

CITY           SKY/WX    TMP DP  RH WIND       PRES   REMARKS
SIOUX FALLS    PTSUNNY   62  58  86 NW9       30.27R
BROOKINGS      NOT AVBL
WATERTOWN      CLOUDY    60  56  86 N7        30.29R
HURON          SUNNY     54  51  90 NW9       30.31R
SISSETON         N/A     61  58  90 N10       30.27R
ABERDEEN       CLOUDY    56  54  93 N9        30.31R
MITCHELL       SUNNY     57  55  93 NW7       30.32R
PIERRE         SUNNY     56  55  97 CALM      30.32S
MOBRIDGE       MOSUNNY   56  55  97 N3        30.32S
RAPID CITY     PTSUNNY   58  54  86 S6        30.35S
$$

  *****  SOME WEATHER IN NEARBY STATES *****

CITY           SKY/WX    TMP DP  RH WIND       PRES   REMARKS
GLASGOW MT     SUNNY     58  51  78 E9        30.28R
GREAT FALLS MT MOCLDY    62  44  51 CALM      30.24R
CHEYENNE WY    SUNNY     58  55  90 W7        30.40S FOG
SCOTTSBLUFF NE SUNNY     61  50  67 E8        30.33R
OMAHA NE       PTSUNNY   62  56  80 N10       30.25R
DES MOINES IA  MOSUNNY   65  57  75 NE9       30.18R
DAVENPORT IA   SUNNY     61  55  81 N12       30.13R
CHICAGO IL     MOSUNNY   61  47  59 N17G23    30.04R
EAU CLAIRE WI  PTSUNNY   61  56  83 NW3       30.17R
LA CROSSE WI   NOT AVBL
$$

  *****  SOME NATIONAL WEATHER *****

CITY           SKY/WX    TMP DP  RH WIND       PRES   REMARKS
LA GUARDIA NY  PTSUNNY   73  66  78 SW8       29.55S
RALEIGH NC     MOSUNNY   77  65  66 W7        29.80R
ATLANTA GA     PTSUNNY   80  74  81 W10       29.95R
NEW ORLEANS LA MOSUNNY   83  76  79 W9        30.09R HX  91
OKLAHOMA CITY  PTSUNNY   76  60  57 E10       30.20R
ALBUQUERQUE NM MOCLDY    72  52  49 E15       30.38R
SALT LAKE CITY MOCLDY    79  49  34 SE7       30.17R
LOS ANGELES CA CLOUDY    69  65  86 CALM      30.04S
BOISE ID       MOCLDY    70  43  37 SW3       30.04R
SEATTLE WA     CLEAR     60  27  28 CALM      30.13R
$$

*** WEATHER ACROSS MANITOBA...SASKATCHEWAN AND ONTARIO ***
                ***ONTARIO***

CITY           SKY/WX    TMP DP  RH WIND       PRES   REMARKS
GERALDTON      PTSUNNY   55  52  88 NW3       30.03S
THUNDER BAY    PTSUNNY   57  54  88 SW8       30.09S
SIOUX LOOKOUT  CLOUDY    61  54  77 NW8       30.15S
TORONTO        LGT RAIN  61  57  88 N22       29.70R
BIG TROUT LK   PTSUNNY   61  54  77 NW6       30.06R
PICKLE LAKE    LGT RAIN  57  54  88 NW5       30.09R
DRYDEN         PTSUNNY   54  52  94 W8        30.18S
KENORA         MOSUNNY   59  55  88 NW6       30.23
$$
                *** MANITOBA***

CITY           SKY/WX    TMP DP  RH WIND       PRES   REMARKS
BRANDON        MOSUNNY   54  52  94 W3        30.32S
DAUPHIN        SUNNY     55  54  94 W9        30.31R
ISLAND LAKE    PTSUNNY   64  55  72 NW6       30.17R
PILOT MOUND      N/A     54  52  94 NW5         N/A
THE PAS        NOT AVBL
THOMPSON       MOSUNNY   61  54  77 NW7       30.21R
WINNIPEG       MOSUNNY   55  52  88 NW7       30.27S
LYNN LAKE      SUNNY     61  52  72 W6        30.24S
CHURCHILL      PTSUNNY   57  54  88 N12G17    30.04S
GILLAM         SUNNY     64  55  72 W9        30.11S
$$
                ***SASKATCHEWAN***

CITY           SKY/WX    TMP DP  RH WIND       PRES   REMARKS
ESTEVAN        MOSUNNY   59  57  94 CALM      30.34R
KINDERSLEY     MOSUNNY   59  55  88 SE3       30.27S
LLOYDMINSTER   MOSUNNY   59  55  88 SW7       30.26R
PRINCE ALBERT  PTSUNNY   59  57  94 E2        30.29S
REGINA         MOSUNNY   57  54  88 SE6       30.31S
YORKTON        MOSUNNY   59  55  88 CALM      30.32F
N. BATTLEFORD    N/A     55  54  94 E3        30.28S
LA RONGE       MOSUNNY   59  55  88 S3        30.27S
SASKATOON      MOSUNNY   59  55  88 S3        30.29S
SWIFT CURRENT  SUNNY     55  52  88 S7        30.29R
$$
NOTE: THESE ARE AUTOMATED STATIONS WITH LIMITED QUALITY CONTROL
      "FAIR" INDICATES FEW OR NO CLOUDS BELOW 12,000 FEET WITH NO
      SIGNIFICANT WEATHER AND/OR OBSTRUCTIONS TO VISIBILITY.
      SKY/WX - SKY CONDITION AND SIGNIFICANT WEATHER.
      TMP - AIR TEMPERATURE.    DP   - DEWPOINT TEMPERATURE.
      RH  - RELATIVE HUMIDITY.  PRES - PRESSURE.
      HX  - HEAT INDEX.         WCI  - WIND CHILL INDEX.
$


USA.gov is the U.S. government's official web portal to all federal, state and local government web resources and services.